Overview Statistics Trail Chart Weather Telemetry Raw packets
 

This is the latest recevied weather packets stored in our database for station/object KC5DAQ-27. If no packets are shown the sender has not sent any weather packets the latest 10 day(s).

<< 515 516 517 518 519 520 521 >>
Time Temp. Humidity Pressure Rain* Wind** Luminosity Snow
1787953008 26.11° C 80% 1008.3 hPa 0.51 mm - 9 W/m² -
1787952949 26.11° C 81% 1008.2 hPa 0.51 mm - 5 W/m² -
1787952888 26.11° C 81% 1008.1 hPa 0.51 mm - 5 W/m² -
1787952827 26.11° C 80% 1007.8 hPa 0.51 mm - 5 W/m² -
1787952769 26.11° C 79% 1007.4 hPa 0.51 mm - 7 W/m² -
1787952707 26.11° C 79% 1007.3 hPa 0.51 mm - 11 W/m² -
1787952647 26.67° C 79% 1007.2 hPa 0.51 mm - 23 W/m² -
1787952588 26.67° C 79% 1006.9 hPa 0.51 mm - 32 W/m² -
1787952527 26.11° C 79% 1006.5 hPa 0.51 mm - 41 W/m² -
1787952467 25.56° C 79% 1006.6 hPa 0.51 mm - 49 W/m² -
1787952407 25° C 80% 1006.3 hPa 0.51 mm - 53 W/m² -
1787952348 24.44° C 79% 1006.3 hPa 0.51 mm - 49 W/m² -
1787952287 24.44° C 79% 1006.5 hPa 0.51 mm - 37 W/m² -
1787952227 24.44° C 79% 1006.6 hPa 0.51 mm - 30 W/m² -
1787952168 24.44° C 78% 1006.8 hPa 0.51 mm - 30 W/m² -
1787952108 24.44° C 77% 1007 hPa 0.51 mm - 28 W/m² -
1787952047 25° C 76% 1007 hPa 0.51 mm - 28 W/m² -
1787951987 25° C 76% 1006.7 hPa 0.51 mm - 30 W/m² -
1787951928 25.56° C 74% 1007.2 hPa 0.51 mm - 32 W/m² -
1787951867 25.56° C 72% 1007 hPa 0.51 mm - 32 W/m² -
1787951807 26.67° C 72% 1006.8 hPa 0.25 mm - 33 W/m² -
1787951748 26.67° C 75% 1006.8 hPa 0 mm - 33 W/m² -
1787951687 27.22° C 74% 1006.6 hPa 0 mm - 33 W/m² -
1787951629 27.78° C 73% 1006.4 hPa 0 mm - 37 W/m² -
1787951567 28.33° C 73% 1006.3 hPa 0 mm - 46 W/m² -

* Rain latest hour (hover to see other rain measurements)
** Current wind speed in m/s (hover to see current wind gust speed)